Probability
0 0 0 0 0 0 0 0 0 0 0 0 0 0 0 0 0 0 0 0 0 0 1 2 2 2 2 2 3 5 6 6 6 6 6 6 6 5 4 2 1 0 0 0
0 0 0 0 0 0 0 0 0 0 0 0 0 0 0 0 0 0 0 0 0 0 0 1 1 1 1 1 1 3 5 6 6 6 6 6 6 5 4 3 1 0 0 0
0 0 0 0 0 0 0 0 0 0 0 0 0 0 0 0 0 0 0 0 0 0 0 0 0 0 0 0 0 1 3 4 5 6 6 6 6 6 5 4 2 1 0 0
0 0 0 0 0 0 0 0 0 0 0 0 0 0 0 0 0 0 0 0 0 0 0 0 0 0 0 0 0 0 1 1 3 4 5 5 5 6 6 5 4 1 0 0
0 0 0 0 0 0 0 0 0 0 0 0 0 0 0 0 0 0 0 0 0 0 0 0 0 0 0 0 0 0 0 0 1 1 3 3 4 4 5 6 5 3 1 0
0 0 0 0 0 0 0 0 0 0 0 0 0 0 0 0 0 0 0 0 0 0 0 0 0 0 0 0 0 0 0 0 0 0 1 2 3 3 4 5 6 4 2 1
0 0 0 0 0 0 0 0 0 0 0 0 0 0 0 0 0 0 0 0 0 0 0 0 0 0 0 0 0 0 0 0 0 0 0 1 1 2 3 4 5 4 3 2
0 0 0 0 0 0 0 0 0 0 0 0 0 0 0 0 0 0 0 0 0 0 0 0 0 0 0 0 0 0 0 0 0 0 0 0 0 1 1 1 3 4 3 3
0 0 0 0 0 0 0 0 0 0 0 0 0 0 0 0 0 0 0 0 0 0 0 0 0 0 0 0 0 0 0 0 0 0 0 0 0 0 0 1 1 3 3 3
0 0 0 0 0 0 0 0 0 0 0 0 0 0 0 0 0 0 0 0 0 0 0 0 0 0 0 0 0 0 0 0 0 0 0 0 0 0 0 1 1 2 3 3
0 0 0 0 0 0 0 0 0 0 0 0 0 0 0 0 0 0 0 0 0 0 0 0 0 0 0 0 0 0 0 0 0 0 0 0 0 0 0 1 1 1 2 2
0 0 0 0 0 0 0 0 0 0 0 0 0 0 0 0 0 0 0 0 0 0 0 0 0 0 0 0 0 0 0 0 0 0 0 0 0 0 0 0 0 0 1 1
0 0 0 0 0 0 0 0 0 0 0 0 0 0 0 0 0 0 0 0 0 0 0 0 0 0 0 0 0 0 0 0 0 0 0 0 0 0 0 0 0 0 0 1
0 0 0 0 0 0 0 0 0 0 0 0 0 0 0 0 0 0 0 0 0 0 0 0 0 0 0 0 0 0 0 0 0 0 0 0 0 0 0 0 0 0 0 1
0 0 0 0 0 0 0 0 0 0 0 0 0 0 0 0 0 0 0 0 0 0 0 0 0 0 0 0 0 0 0 0 0 0 0 0 0 0 0 0 0 0 0 1
0 0 0 0 0 0 0 0 0 0 0 0 0 0 0 0 0 0 0 0 0 0 0 0 0 0 0 0 0 0 0 0 0 0 0 0 0 0 0 0 0 0 0 0
0 0 0 0 0 0 0 0 0 0 0 0 0 0 0 0 0 0 0 0 0 0 0 0 0 0 0 0 0 0 0 0 0 0 0 0 0 0 0 0 0 0 0 0
0 0 0 0 0 0 0 0 0 0 0 0 0 0 0 0 0 0 0 0 0 0 0 0 0 0 0 0 0 0 0 0 0 0 0 0 0 0 0 0 0 0 0 0
0 0 0 0 0 0 0 0 0 0 0 0 0 0 0 0 0 0 0 0 0 0 0 0 0 0 0 0 0 0 0 0 0 0 0 0 0 0 0 0 0 0 0 0
0 0 0 0 0 0 0 0 0 0 0 0 0 0 0 0 0 0 0 0 0 0 0 0 0 0 0 0 0 0 0 0 0 0 0 0 0 0 0 0 0 0 0 0
0 0 0 0 0 0 0 0 0 0 0 0 0 0 0 0 0 0 0 0 0 0 0 0 0 0 0 0 0 0 0 0 0 0 0 0 0 0 0 0 0 0 0 0
0 0 0 0 0 0 0 0 0 0 0 0 0 0 0 0 0 0 0 0 0 0 0 0 0 0 0 0 0 0 0 0 0 0 0 0 0 0 0 0 0 0 0 0
0 0 0 0 0 0 0 0 0 0 0 0 0 0 0 0 0 0 0 0 0 0 0 0 0 0 0 0 0 0 0 0 0 0 0 0 0 0 0 0 0 0 0 0
0 0 0 0 0 0 0 0 0 0 0 0 0 0 0 0 0 0 0 0 0 0 0 0 0 0 0 0 0 0 0 0 0 0 0 0 0 0 0 0 0 0 0 0
0 0 0 0 0 0 0 0 0 0 0 0 0 0 0 0 0 0 0 0 0 0 0 0 0 0 0 0 0 0 0 0 0 0 0 0 0 0 0 0 0 0 0 0
0 0 0 0 0 0 0 0 0 0 0 0 0 0 0 0 0 0 0 0 0 0 0 0 0 0 0 0 0 0 0 0 0 0 0 0 0 0 0 0 0 0 0 0
Wind_Speed
1 1 2 2 3 4 4 5 6 3 1 2 5 5 3 3 2 1 1 2 2 3 4 4 4 4 3 3 3 3 2 2 2 1 1 1 1 1 1 1 1 1 1 1
1 2 2 2 3 5 5 6 6 2 1 2 4 6 3 2 3 2 1 2 2 3 4 4 4 4 4 4 3 3 2 2 2 1 1 0 0 0 0 0 1 1 1 0
1 1 1 2 2 3 4 4 4 4 5 4 5 6 5 3 3 3 2 3 3 3 3 3 4 3 4 4 3 3 3 3 2 2 1 1 1 1 1 1 1 1 0 0
1 1 1 1 1 3 3 2 4 4 4 4 3 5 3 4 3 2 1 2 2 3 3 4 4 4 4 4 4 3 3 3 3 2 2 1 1 1 1 1 1 1 1 0
0 1 1 1 1 2 2 3 4 5 5 5 4 5 3 4 3 2 1 2 2 3 4 4 4 4 4 4 4 4 4 4 3 3 2 2 1 1 1 1 2 1 1 1
0 1 2 2 1 1 2 2 4 4 2 5 5 4 3 2 2 3 2 3 3 4 4 4 4 5 5 5 5 4 4 4 4 4 3 2 2 2 2 2 2 2 1 1
2 2 2 1 1 1 1 1 1 1 3 5 1 3 3 2 4 3 4 3 4 4 4 4 5 5 6 6 6 5 5 5 5 4 3 3 2 2 2 2 1 2 1 2
2 2 2 1 1 0 1 0 1 3 4 3 2 5 1 4 5 5 5 4 4 4 4 4 4 4 5 6 6 6 5 5 5 5 4 3 3 2 2 2 2 2 2 2
3 1 2 3 3 1 1 1 1 1 3 4 5 2 2 2 4 4 3 3 3 3 3 3 4 4 4 5 5 6 6 6 6 6 5 3 3 3 3 3 3 2 2 3
2 3 0 1 0 1 2 1 0 2 2 5 5 3 2 3 2 1 2 2 2 3 3 3 4 4 4 4 4 5 5 5 6 6 5 4 4 3 3 3 3 3 4 4
2 1 1 1 2 2 1 1 2 2 3 3 4 3 2 2 3 2 1 1 2 2 3 3 3 3 3 3 4 5 5 6 6 6 6 5 5 4 4 3 3 4 4 4
2 1 3 1 2 2 0 1 2 3 4 3 3 4 2 3 3 2 2 2 2 2 2 2 3 3 3 4 4 5 5 5 6 6 6 5 5 5 5 5 4 4 5 4
1 0 2 1 0 1 1 2 2 1 1 3 4 5 1 2 2 2 2 1 1 1 2 2 2 3 4 4 4 5 5 5 5 6 6 5 5 5 6 6 6 5 5 5
1 1 4 5 2 1 3 3 3 3 3 4 7 6 3 2 2 2 1 0 1 1 2 3 3 3 3 4 4 4 5 5 6 6 6 5 6 6 6 6 6 6 6 5
0 2 3 5 5 3 5 5 5 7 7 6 6 5 6 3 2 2 1 1 1 2 3 3 3 3 3 4 4 5 5 6 6 6 6 5 5 6 6 6 6 6 6 6
1 2 1 4 5 4 7 7 6 7 6 8 7 9 5 2 1 1 2 2 2 3 3 3 3 3 4 4 4 5 5 6 6 6 6 6 6 6 6 6 6 6 6 6
2 2 2 4 2 4 7 5 6 4 4 5 7 7 2 2 2 2 2 2 3 3 3 3 3 3 4 4 4 5 5 6 6 6 6 6 6 6 7 7 7 7 6 6
2 2 2 3 3 6 5 1 3 4 3 4 4 3 2 2 3 2 2 2 3 3 3 3 3 3 3 4 4 4 5 5 5 6 6 6 6 7 7 6 6 7 6 6
1 2 2 2 4 7 2 1 2 3 4 3 4 4 3 3 3 2 2 1 2 2 2 2 3 3 3 4 4 4 5 5 5 6 6 6 6 7 7 7 7 6 6 6
1 1 2 2 3 6 3 1 0 1 3 1 1 2 2 2 2 3 2 3 3 2 2 2 3 3 4 4 3 4 5 5 6 6 7 6 6 6 6 7 7 6 6 6
2 2 4 4 5 6 1 1 1 2 4 1 1 1 1 2 3 2 2 3 2 2 2 2 3 3 3 4 3 4 5 6 6 6 7 7 6 6 6 6 6 6 6 6
5 4 4 3 5 6 1 2 3 3 1 1 1 1 2 3 3 3 3 3 3 3 3 2 3 3 3 3 3 4 5 6 6 6 7 7 6 6 6 5 6 5 5 6
3 4 3 4 5 1 3 3 2 0 1 1 2 2 2 3 3 3 3 3 3 3 2 2 3 4 4 3 3 4 6 5 5 6 6 6 7 6 6 5 5 5 4 4
2 0 1 2 3 1 2 1 1 1 2 2 2 2 2 3 4 4 4 3 3 3 3 2 3 3 4 4 4 4 5 5 5 6 6 6 6 6 5 5 4 4 4 4
1 2 2 3 3 2 1 1 1 2 2 2 2 2 3 3 4 4 3 3 3 3 3 2 3 4 5 4 5 5 5 4 5 6 6 6 6 6 5 5 4 5 4 4
2 3 4 4 3 2 3 1 1 1 2 3 3 3 3 3 3 3 3 3 3 3 3 3 3 4 5 5 5 5 4 4 4 5 5 5 5 5 5 5 5 8 8 10
Wind_Direction
195 203 209 231 241 283 296 277 271 277 274 252 248 254 225 172 161 125 107 94 74 59 63 71 57 46 47 47 43 40 52 49 47 32 28 27 22 357 20 39 50 41 48 80
212 229 253 277 271 270 278 277 280 297 351 303 283 271 233 181 155 153 144 112 90 67 53 50 59 47 37 34 28 27 25 29 26 6 349 317 279 287 296 26 40 29 10 32
202 356 318 278 305 277 267 271 293 312 320 269 279 272 202 160 135 113 76 74 72 72 59 48 42 47 33 25 21 19 17 11 0 9 18 22 14 6 17 8 350 324 318 21
242 298 329 279 305 299 259 323 301 298 297 270 217 279 214 155 141 126 97 78 69 57 51 42 34 28 24 15 14 14 12 18 5 13 25 25 5 323 315 302 301 302 300 261
25 40 321 291 320 314 309 331 288 271 265 284 244 247 262 150 184 200 163 88 73 62 53 42 31 22 18 17 18 13 11 11 7 5 7 358 347 325 329 335 330 335 307 292
256 52 33 15 345 289 319 303 274 259 247 261 226 211 267 177 187 169 132 92 70 57 51 38 26 23 21 19 17 13 8 6 7 2 358 358 346 340 339 334 324 328 321 301
223 175 98 33 338 223 328 9 334 298 230 242 156 206 243 75 60 92 115 93 71 57 47 36 24 19 16 13 10 8 6 360 1 359 351 346 338 324 302 295 292 308 305 301
271 233 127 69 53 312 254 166 180 240 264 301 298 231 209 90 71 70 83 81 67 55 41 33 25 18 14 7 5 2 1 355 352 349 341 342 343 331 312 310 299 285 279 271
322 288 79 57 37 18 230 214 327 318 288 276 247 199 106 77 71 73 77 72 63 50 37 28 22 19 14 4 358 356 357 354 350 346 339 341 342 331 317 315 306 289 288 283
334 302 83 92 87 18 344 343 150 182 248 267 266 233 212 181 191 130 88 70 54 41 29 20 15 12 10 360 352 355 356 352 348 345 339 340 337 328 318 311 306 300 290 279
336 275 262 181 199 209 163 213 233 241 240 244 275 273 31 130 146 149 134 88 56 39 19 9 1 359 359 358 358 355 354 351 347 345 342 341 336 331 324 312 307 303 293 276
5 310 269 219 80 33 54 229 188 200 250 232 258 267 37 82 97 107 105 85 60 32 13 3 357 356 356 356 355 353 351 347 343 341 338 335 331 329 327 324 317 312 302 288
53 199 292 272 312 1 311 259 231 186 256 239 241 255 60 69 80 86 95 58 25 1 357 358 357 354 350 350 348 344 342 340 338 337 334 332 332 332 330 326 321 318 310 305
54 214 209 234 268 194 251 245 203 180 216 242 235 256 291 306 330 353 4 339 341 339 345 349 350 340 339 342 341 338 338 337 336 335 330 329 329 328 325 322 321 317 313 306
98 244 240 265 282 271 250 240 205 206 222 232 255 266 280 292 308 322 350 359 352 340 338 338 332 327 334 342 342 341 337 336 334 328 324 323 323 325 324 322 321 319 315 310
215 250 291 273 254 263 274 258 227 226 237 246 267 276 278 287 337 344 336 322 305 306 311 316 325 333 335 338 336 336 331 330 330 325 322 324 326 326 324 321 319 319 317 313
191 199 256 270 272 302 272 243 205 204 216 209 233 249 310 333 312 285 287 294 293 295 305 316 324 326 329 332 336 331 326 327 327 325 324 327 328 326 323 322 323 320 315 310
168 189 232 279 319 254 244 70 158 185 230 218 240 283 314 299 303 307 287 276 295 310 323 325 326 327 328 332 335 327 324 324 326 325 324 328 328 323 320 321 320 316 312 310
188 186 233 245 264 268 244 158 134 180 272 236 234 276 311 328 320 318 347 10 323 320 320 320 323 320 323 327 326 326 326 328 328 326 324 324 322 319 319 319 316 313 313 309
67 135 213 235 247 254 247 131 67 106 279 332 176 252 294 344 296 290 13 17 2 354 347 335 330 327 324 322 329 329 324 326 324 320 317 315 313 312 311 310 309 310 308 304
170 199 219 234 245 261 259 221 134 178 254 355 21 307 303 253 250 288 335 337 337 336 331 327 322 318 315 320 327 319 319 317 316 317 316 315 313 310 305 305 307 310 310 312
180 190 203 207 229 251 128 122 177 219 353 20 353 328 298 282 300 313 316 317 324 324 321 322 317 312 313 317 319 315 311 310 316 317 316 315 314 311 311 310 309 310 312 314
192 199 193 196 216 184 151 169 207 70 308 310 315 310 298 289 289 298 300 295 297 298 302 306 303 305 309 314 318 307 305 312 315 317 316 314 314 313 312 309 311 312 313 315
218 216 202 259 260 225 188 195 298 292 270 291 297 290 280 274 277 283 289 292 292 291 292 296 301 305 307 311 311 299 304 310 311 312 312 312 314 316 316 313 311 311 312 311
230 168 214 247 269 301 238 202 266 299 313 310 304 290 281 273 275 276 279 283 286 298 301 301 293 293 297 306 304 305 309 310 309 308 308 311 313 312 313 312 306 304 292 299
193 187 200 230 224 221 265 306 294 280 288 292 297 298 289 269 273 282 279 280 285 292 295 297 295 295 298 302 300 302 304 305 304 308 311 311 311 310 312 311 311 312 309 311